Location: Newark
(45.4422°N, 16.2769°E)
Time: 04:59:36
(UTC+00:00)

Tiros 1 despin weight - Pass Details

Date: 16 December 2019
Orbit: 594 x 643 km, 48.2° (Epoch: 21 January)

Event Time Altitude Azimuth Distance (km) Brightness Sun altitude
Rises 01:25:07 0° 219° (SW) 2,906 - -51.7°
Reaches altitude 10° 01:27:35 10° 210° (SSW) 1,994 - -51.3°
Maximum altitude 01:31:45 35° 145° (SE) 1,008 - -50.6°
Drops below altitude 10° 01:35:52 10° 80° (E) 1,973 - -49.9°
Sets 01:38:18 0° 71° (ENE) 2,872 - -49.5°
